Location: Roanoke
(37.2710°N, 79.9420°W)
Time: 06:18:33
(UTC-05:00)

Explorer 11/Cluster Stage 4 - Visible Passes

Search period start: 12 November 2019 00:00
Search period end: 22 November 2019 00:00
Orbit: 467 x 1259 km, 28.8° (Epoch: 11 November)

Date Brightness Start Highest point End Pass type
(mag) Time Alt. Az. Time Alt. Az. Time Alt. Az.
12 Nov 9.7 03:01:13 11° SE 03:01:13 11° SE 03:01:25 10° SE visible
12 Nov 8.8 04:43:22 18° SSW 04:43:22 18° SSW 04:47:28 10° SSE visible
13 Nov 9.0 04:33:25 16° SSW 04:33:25 16° SSW 04:36:16 10° S visible
14 Nov 9.3 04:23:30 13° S 04:23:30 13° S 04:24:54 10° S visible
17 Nov 9.1 20:18:06 10° SW 20:18:49 13° SSW 20:18:49 13° SSW visible
18 Nov 8.8 18:24:05 10° SSE 18:24:41 10° SSE 18:25:18 10° SE visible
18 Nov 8.9 20:07:23 10° SW 20:08:47 17° SSW 20:08:47 17° SSW visible
19 Nov 8.7 18:12:21 10° SSE 18:13:52 11° SSE 18:15:29 10° SE visible
19 Nov 8.6 19:56:43 10° SW 19:58:45 20° SSW 19:58:45 20° SSW visible
20 Nov 8.6 18:01:08 10° S 18:03:05 12° SSE 18:05:10 10° SE visible
20 Nov 8.2 19:46:06 10° SW 19:48:41 24° SSW 19:48:41 24° SSW visible
21 Nov 8.4 17:50:07 10° S 17:52:18 13° SSE 17:54:42 10° SE visible
21 Nov 8.0 19:35:30 10° SW 19:38:36 27° SSW 19:38:36 27° SSW visible
